Flight Track Log - Related Links

Times and Time Zones

All times are in EDT time to prevent confusion due to time zone crossing. See the UAL149 flight status page for this flight to view local times or setup timezone preferences in your user account.

Time Position Orientation Groundspeed Altitude Reporting Facility
EDT Latitude Longitude Course Direction KTS MPH feet Rate Location/Type
Sun 15:42:08 41.4175 -81.8347 90° East 154 177 1,600  Level Cleveland Center
Sun 15:42:44 41.4489 -81.8186 21° North 198 228 2,800 2,616 Climbing Cleveland Center
Sun 15:44:00 41.6643 -81.5857 37° Northeast  Level FlightAware Approximate
Sun 15:45:00 41.7525 -81.4975 37° Northeast  Level FlightAware Approximate
Sun 15:45:00 41.5875 -81.7242 27° Northeast 263 303 9,100  Level Cleveland Center
Sun 15:46:00 41.8333 -81.4043 90° East  Level FlightAware Approximate
Sun 15:46:00 41.6569 -81.6447 41° Northeast 285 328 11,200  Level Cleveland Center
Sun 15:47:00 41.8500 -81.2613 90° East  Level FlightAware Approximate
Sun 15:47:00 41.6956 -81.5314 65° Northeast 316 364 14,000  Level Cleveland Center
Sun 15:48:00 41.7172 -81.4092 77° East 326 375 16,700 2,550 Climbing Cleveland Center
Sun 15:49:00 41.7431 -81.2761 75° East 347 399 19,100 2,350 Climbing Cleveland Center
Sun 15:50:00 41.7689 -81.1372 76° East 367 422 21,400 2,150 Climbing Cleveland Center
Sun 15:51:00 41.7944 -80.9953 76° East 385 443 23,400 1,800 Climbing Cleveland Center
Sun 15:52:00 41.8219 -80.8478 76° East 401 461 25,000 1,450 Climbing Cleveland Center
Sun 15:53:00 41.8453 -80.7086 77° East 410 472 26,300 1,350 Climbing Cleveland Center
Sun 15:54:00 41.8744 -80.5497 76° East 428 493 27,700 1,300 Climbing Cleveland Center
Sun 15:55:00 41.9014 -80.3906 77° East 428 493 28,900 1,050 Climbing Cleveland Center
Sun 15:56:00 41.9322 -80.2231 76° East 444 511 29,800 550 Climbing Cleveland Center
Sun 15:57:00 41.9589 -80.0556 78° East 457 526 30,000 100 Climbing Cleveland Center
Sun 15:58:00 41.9911 -79.8764 76° East 449 517 30,000 50 Level Cleveland Center
Sun 15:59:00 42.0214 -79.7111 76° East 449 517 30,100 750 Climbing Cleveland Center
Sun 16:00:00 42.0469 -79.5458 78° East 449 517 31,500 1,350 Climbing Cleveland Center
Sun 16:01:00 42.0767 -79.3775 77° East 449 517 32,800 750 Climbing Cleveland Center
Sun 16:02:00 42.1039 -79.2119 77° East 449 517 33,000 100 Climbing Cleveland Center
Sun 16:03:00 42.1311 -79.0433 78° East 449 517 33,000  Level Cleveland Center
Sun 16:04:00 42.1558 -78.8775 79° East 449 517 33,000  Level Cleveland Center
Sun 16:05:00 42.1844 -78.7142 77° East 449 517 33,000  Level Cleveland Center
Sun 16:06:00 42.2092 -78.5647 77° East 449 517 33,000  Level Cleveland Center
Sun 16:07:00 42.2331 -78.3986 79° East 449 517 33,000  Level Cleveland Center
Sun 16:08:00 42.2592 -78.2350 78° East 449 517 33,000  Level Cleveland Center
Sun 16:09:00 42.2847 -78.0683 78° East 449 517 33,000  Level Cleveland Center
Sun 16:10:00 42.3103 -77.8989 78° East 449 517 33,000  Level Cleveland Center
Sun 16:11:00 42.3375 -77.7319 78° East 449 517 33,000  Level Cleveland Center
Sun 16:12:00 42.3622 -77.5622 79° East 449 517 33,000  Level Cleveland Center
Sun 16:13:00 42.3869 -77.3922 79° East 454 522 33,000  Level Cleveland Center
Sun 16:14:50 42.4333 -77.0628 79° East 444 511 33,000  Level Boston Center
Sun 16:15:50 42.4547 -76.8925 80° East 450 518 33,000  Level Boston Center
Sun 16:16:50 42.4739 -76.7222 81° East 450 518 33,000  Level Boston Center
Sun 16:18:02 42.4939 -76.5178 82° East 455 524 33,000  Level Boston Center
Sun 16:19:02 42.5122 -76.3528 81° East 455 524 33,000  Level Boston Center
Sun 16:20:02 42.5306 -76.1850 82° East 455 524 33,000 -50 Level Boston Center
Sun 16:21:02 42.5461 -76.0194 83° East 449 517 32,900 -50 Descending Boston Center
Sun 16:22:02 42.5617 -75.8569 83° East 441 507 32,900 50 Level Boston Center
Sun 16:23:02 42.5769 -75.6942 83° East 435 501 33,000  Climbing Boston Center
Sun 16:24:02 42.5936 -75.5369 82° East 430 495 32,900  Descending Boston Center
Sun 16:25:02 42.6083 -75.3769 83° East 424 488 33,000 50 Climbing Boston Center
Sun 16:26:02 42.6250 -75.2167 82° East 424 488 33,000  Level Boston Center
Sun 16:27:02 42.6392 -75.0536 83° East 424 488 33,000  Level Boston Center
Sun 16:28:02 42.6533 -74.8933 83° East 424 488 33,000  Level Boston Center
Sun 16:29:02 42.6669 -74.7358 83° East 424 488 33,000  Level Boston Center
Sun 16:30:02 42.6806 -74.5725 83° East 424 488 33,000  Level Boston Center
Sun 16:31:02 42.6958 -74.4119 83° East 424 488 33,000  Level Boston Center
Sun 16:32:02 42.7069 -74.2569 84° East 424 488 33,000  Level Boston Center
Sun 16:33:02 42.7217 -74.1019 83° East 419 482 33,000 -50 Level Boston Center
Sun 16:34:02 42.7322 -73.9439 85° East 424 488 32,900  Descending Boston Center
Sun 16:35:02 42.7425 -73.7858 85° East 424 488 33,000 50 Climbing Boston Center
Sun 16:36:02 42.7317 -73.6469 96° East 419 482 33,000  Level Boston Center
Sun 16:37:02 42.7144 -73.4883 98° East 424 488 33,000  Level Boston Center
Sun 16:38:02 42.6992 -73.3300 97° East 424 488 33,000  Level Boston Center
Sun 16:39:02 42.6814 -73.1744 99° East 424 488 33,000 -400 Level Boston Center
Sun 16:40:02 42.6658 -73.0161 98° East 424 488 32,200 -11,000 Descending Boston Center
Sun 16:41:02 42.6436 -72.8408 100° East 422 486 11,000 -2,900 Descending Boston Center
Sun 16:42:02 42.6253 -72.6942 100° East 420 483 26,400 6,550 Climbing Boston Center
Sun 16:43:02 42.6131 -72.5389 96° East 393 452 24,100 -2,050 Descending Boston Center
Sun 16:44:02 42.5881 -72.4006 104° East 388 447 22,300 -1,950 Descending Boston Center
Sun 16:45:02 42.5711 -72.2597 99° East 388 447 20,200 -1,900 Descending Boston Center
Sun 16:46:02 42.5542 -72.1300 100° East 352 405 18,500 -1,850 Descending Boston Center
Sun 16:47:02 42.5392 -72.0117 100° East 346 398 16,500 -1,950 Descending Boston Center
Sun 16:48:02 42.5281 -71.8681 96° East 346 398 14,600 -1,750 Descending Boston Center
Sun 16:49:02 42.5192 -71.7583 96° East 341 392 13,000 -1,800 Descending Boston Center
Sun 16:50:02 42.5039 -71.6261 99° East 331 381 11,000 -1,412 Descending Boston Center
Sun 16:50:27 42.5000 -71.5667 95° East 323 372 11,000  Level KA90
Sun 16:51:21 42.4833 -71.4667 103° East 316 364 11,000 -472 Level KA90
Sun 16:52:34 42.4833 -71.3333 90° East 283 326 10,000 -884 Descending KA90
Sun 16:53:30 42.4667 -71.2500 105° East 272 313 9,100 -1,160 Descending KA90
Sun 16:54:33 42.4667 -71.1333 90° East 263 303 7,700 -728 Descending KA90
Sun 16:56:23 42.4167 -71.0000 117° Southeast 225 259 7,000 -246 Descending KA90
Sun 16:57:24 42.3500 -70.9667 160° South 233 268 7,000 -484 Level KA90
Sun 16:58:27 42.2833 -70.9500 170° South 233 268 6,000 -1,008 Descending KA90
Sun 16:59:29 42.2333 -70.9667 194° South 230 265 4,900 -1,200 Descending KA90
Sun 17:01:02 42.2231 -71.0550 261° West 154 177 2,900 -1,200 Descending Boston Center
Sun 17:01:24 42.2500 -71.0667 342° North 210 242 2,600 -1,129 Descending KA90
Sun 17:02:27 42.3000 -71.0333 26° Northeast 179 206 1,300 -1,073 Descending KA90
Sun 17:03:27 42.3333 -71.0167 20° North 155 178 400 -900 Descending KA90

Login

Don't have an account? Register now (free) for customized features, flight alerts, and more!